Miscellaneous Local Product
Issued by NWS North Platte, NE

Home | Current Version | Previous Version | Graphics & Text | Print | Product List | Glossary On
Versions: 1 2 3 4 5 6 7 8 9 10 11 12 13 14 15 16 17 18 19 20 21 22 23 24 25 26 27 28 29 30 31 32 33 34 35 36 37 38 39 40 41 42 43 44 45 46 47 48 49 50
000
AXUS43 KLBF 231010
MISLBF


WESTERN AND NORTH CENTRAL NEBRASKA HOURLY WEATHER ROUNDUP
NATIONAL WEATHER SERVICE NORTH PLATTE NE
500 AM CDT TUE MAY 23 2017

NOTE: "FAIR" INDICATES FEW OR NO CLOUDS BELOW 12,000 FEET WITH NO
SIGNIFICANT WEATHER AND/OR OBSTRUCTIONS TO VISIBILITY.

NOTE: STATIONS NOT REPORTING VARIABLES SUCH AS SKY/WEATHER OR
PRESSURE ARE PROVIDED BY RAWS AND APRS NETWORKS AND ARE NOT UNDER
NATIONAL WEATHER SERVICE QUALITY CONTROL.

...OBSERVATIONS IN AND NEAR THE EASTERN PANHANDLE OF NEBRASKA...

CITY           SKY/WX    TMP DP  RH WIND       PRES   REMARKS
PINE RIDGE     CLOUDY    44  41  89 W7        30.10F
GORDON         CLOUDY    43  39  86 W10       30.09S
CHADRON        CLOUDY    45  39  79 NW10      30.13F
ALLIANCE       CLOUDY    39  37  92 W8        30.12S WCI  33
SIDNEY         CLEAR     37  35  92 W13       30.15F WCI  29
CRESCENT LAKE    N/A     42  40  91 NW9         N/A
$$

...OBSERVATIONS IN NORTHERN NEBRASKA AND FAR SOUTHERN SOUTH DAKOTA...

CITY           SKY/WX    TMP DP  RH WIND       PRES   REMARKS
WINNER         CLOUDY    51  43  74 NW18      29.96S
VALENTINE      CLOUDY    50  42  74 W17       30.01F
THEDFORD       CLOUDY    43  41  93 W9        30.04F
AINSWORTH      CLOUDY    47  45  90 W10       29.99F
O`NEILL        DRIZZLE   47  43  86 W7        29.96F
ORD            MOCLDY    44  40  85 W6        29.99S
BROKEN BOW     CLOUDY    46  42  86 NW13      30.01F
VALENTINE NWR    N/A     45  42  91 NW9         N/A
HALSEY           N/A     43  41  93 W6          N/A
BUTTE            N/A     45  42  88 CALM        N/A
CHAMBERS         N/A     45  42  89 CALM        N/A
EWING            N/A     45  43  93 W3          N/A
$$

...OBSERVATIONS IN SOUTHWEST NEBRASKA AND FAR NORTHEAST COLORADO...

CITY           SKY/WX    TMP DP  RH WIND       PRES   REMARKS
WRAY           FAIR      41  37  87 NW10      30.14F
IMPERIAL       CLEAR     42  37  82 NW8       30.12S
OGALLALA       CLOUDY    46  41  84 NW9       30.11S
NORTH PLATTE   CLEAR     41  39  93 W8        30.07F
MCCOOK         CLEAR     44  41  89 NW13      30.08S
LEXINGTON      CLOUDY    45  42  92 W9        30.05S
STAPLETON        N/A     40  38  93 CALM        N/A
GOTHENBURG       N/A     42  39  88 W5          N/A
CALLAWAY         N/A     42  40  93 NW8         N/A
$$

...OBSERVATIONS IN CENTRAL LINCOLN COUNTY AREA...

CITY           SKY/WX    TMP DP  RH WIND       PRES   REMARKS
N.P. AIRPORT   CLEAR     41  39  93 W8        30.07F
N.P. DOWNTOWN    N/A     42  40  92 CALM        N/A
N.P. SOUTHEAST   N/A     42  39  89 CALM        N/A
N.P. HILLCREST   N/A     42  40  92 NW7         N/A
$$

...SOME OBSERVATIONS FROM AROUND THE REGION...

CITY           SKY/WX    TMP DP  RH WIND       PRES   REMARKS
DENVER         MOCLDY    43  35  73 W9        30.23F
LIMON          CLOUDY    37  35  92 NW17      30.19F WCI  27
ASPEN          CLOUDY    33  32  96 VRB3      30.30S
LARAMIE        CLEAR     32  28  85 CALM      30.26S
CASPER         CLOUDY    39  37  92 SW14      30.25R WCI  31
CHEYENNE       CLOUDY    39  33  79 NW12      30.22F WCI  32
SCOTTSBLUFF    CLEAR     38  35  89 W8        30.17S WCI  32
GRAND ISLAND   CLEAR     46  43  89 NW12      29.99S
OMAHA          PTCLDY    47  42  83 NW5       29.91R
SIOUX FALLS    CLOUDY    48  44  86 NW12      29.89F
PIERRE         CLOUDY    47  40  76 NW12      30.00R
RAPID CITY     CLOUDY    49  39  68 N16       30.11R
BISMARCK       CLOUDY    53  37  54 N16G23    30.05S
KANSAS CITY    CLOUDY    56  56 100 W7        29.86S FOG
HILL CITY      CLEAR     47  45  93 NW8       30.07F
WICHITA        CLOUDY    55  53  93 N13       29.92R
DODGE CITY     CLOUDY    48  45  89 N12       30.06R
OKLAHOMA CITY  MOCLDY    57  56  96 CALM      29.93S
DALLAS         CLOUDY    66  63  90 CALM      29.85F
AMARILLO       CLOUDY    50  45  83 N16G24    30.14R
$$




USA.gov is the U.S. government's official web portal to all federal, state and local government web resources and services.